カタログに戻る

STARLINK-34190

運用中通信VLEO
NORAD 64078·PAYLOAD·🇺🇸 United States

打ち上げ May 21, 2025 から Cape Canaveral Space Force Station

Loading…

次のパス (今後24時間)

TLE

最新Source: CelesTrak SupGP

元期: Sep 14, 2026, 21:34 UTC

1 64078C 25107Q   26257.89909722  .00017852  00000+0  64654-3 0  2575
2 64078  43.0027 212.9427 0001217 258.6699 265.9471 15.27572559    19

AllMySatでSTARLINK-34190をリアルタイム追跡

Download on the App Store